[[{"header":{"parameterUnit":"m.s-1","parameterCategory":1,"la1":30.2992,"la2":30.254,"lo1":-89.0895,"lo2":-89.0443,"dy":0.0025,"dx":0.0025,"nx":19,"ny":19,"refTime":"2026-04-19T03:00:00:Z","depth":0,"parameterNumber":2,"parameterNumberName":"U-component_of_WINDS"},"data":[0,0,0,-2.3789,-2.3791,-2.3863,-2.3863,-2.3976,-2.3977,0,0,0,0,0,0,0,0,0,0,0,-2.378,-2.3781,-2.3789,-2.3791,-2.3863,-2.3863,-2.3975,-2.3977,0,0,0,0,0,0,0,0,0,0,0,-2.3779,-2.3781,-2.3782,-2.3791,-2.3863,-2.3863,-2.3975,-2.3913,0,0,0,0,0,0,0,0,0,0,-2.384,-2.3844,-2.3781,-2.3782,-2.3792,-2.3863,-2.3863,-2.391,-2.3917,-2.3951,0,-2.3986,0,-2.3983,-2.3986,-2.3986,0,0,0,-2.3781,-2.3838,-2.3846,-2.3783,-2.3792,-2.3863,-2.3828,-2.3914,-2.3922,-2.3961,-2.3987,-2.3991,-2.3985,-2.3986,-2.3987,-2.4216,-2.4218,0,0,-2.3777,-2.38,-2.3841,-2.3852,-2.3843,-2.3826,-2.383,-2.3918,-2.3948,-2.3987,-2.3993,-2.3987,-2.3987,-2.3988,-2.4215,-2.4217,0,0,0,-2.3772,-2.3798,-2.3803,-2.3848,-2.386,-2.3828,-2.3833,-2.3944,-2.3944,-2.3994,-2.3988,-2.3988,-2.399,-2.4213,-2.4215,-2.4313,0,0,0,-2.3769,-2.3794,-2.3802,-2.3816,-2.3858,-2.3903,-2.3857,-2.3938,-2.3947,-2.3988,-2.3988,-2.3991,-2.4211,-2.4214,-2.4306,-2.4355,0,0,0,-2.3771,-2.3794,-2.3809,-2.3817,-2.3849,-2.3901,-2.3906,-2.3939,-2.3944,-2.3986,-2.3991,-2.421,-2.4214,-2.4301,-2.4346,-2.4423,0,0,0,-2.3779,-2.3895,-2.3811,-2.3938,-2.3849,-2.396,-2.3905,-2.3987,-2.4034,-2.3989,-2.4212,-2.4215,-2.4299,-2.434,-2.4417,-2.4493,-2.4526,0,0,-2.3938,-2.3915,-2.3987,-2.3914,-2.4047,-2.3947,-2.4093,-2.4116,-2.4099,-2.4178,-2.4183,-2.4308,-2.4345,-2.4422,-2.4701,-2.4728,0,0,0,-2.4045,-2.4098,-2.4128,-2.4174,-2.4193,-2.4214,-2.4211,-2.4219,-2.4284,-2.4144,-2.4355,-2.4377,-2.442,-2.4456,-2.4478,-2.4515,-2.4232,-2.4231,-2.4231,-2.4303,-2.4275,-2.4393,-2.4373,-2.4418,-2.4413,-2.4447,-2.4457,-2.4415,-2.4466,-2.449,-2.4663,-2.4705,-2.4722,-2.476,-2.4526,-2.4526,-2.4527,-2.4527,-2.4534,-2.4604,-2.4545,-2.4638,-2.4607,-2.4685,-2.4684,-2.4652,-2.472,-2.4643,-2.468,-2.46,-2.4752,-2.4784,-2.4534,-2.4533,-2.4532,-2.4531,-2.4531,-2.4702,-2.473,-2.4737,-2.48,-2.4851,-2.4826,-2.4894,-2.4862,-2.4834,-2.487,-2.4892,-2.4891,-2.4886,-2.4882,-2.4883,-2.4884,-2.4884,-2.4885,-2.4885,-2.4874,-2.4878,-2.4939,-2.4968,-2.4993,-2.5021,-2.5015,-2.5039,-2.5057,-2.5029,-2.5029,-2.4983,-2.4771,-2.472,-2.4894,-2.4893,-2.4891,-2.489,-2.489,-2.5122,-2.506,-2.5155,-2.518,-2.521,-2.5263,-2.5221,-2.5271,-2.5285,-2.532,-2.5264,-2.5113,-2.5087,-2.5069,-2.5026,-2.527,-2.527,-2.527,-2.527,-2.5265,-2.5248,-2.5337,-2.5378,-2.5415,-2.5386,-2.5494,-2.5489,-2.5476,-2.5483,-2.5442,-2.5382,-2.5365,-2.535,-2.5325,-2.5285,-2.5589,-2.5589,-2.5589,-2.5416,-2.5401,-2.5499,-2.5484,-2.5505,-2.5523,-2.5623,-2.5673,-2.5644,-2.5602,-2.5488,-2.5474,-2.5377,-2.5346,-2.5305,-2.5267,-2.5193,0,0]},{"header":{"parameterUnit":"m.s-1","parameterCategory":1,"la1":30.2992,"la2":30.254,"lo1":-89.0895,"lo2":-89.0443,"dy":0.0025,"dx":0.0025,"nx":19,"ny":19,"refTime":"2026-04-19T03:00:00:Z","depth":0,"parameterNumber":3,"parameterNumberName":"V-component_of_WINDS"},"data":[0,0,0,-5.6832,-5.6835,-5.6986,-5.6987,-5.7193,-5.7195,0,0,0,0,0,0,0,0,0,0,0,-5.6799,-5.6801,-5.6832,-5.6836,-5.6986,-5.6987,-5.7193,-5.7195,0,0,0,0,0,0,0,0,0,0,0,-5.6798,-5.68,-5.6803,-5.6836,-5.6986,-5.6987,-5.7192,-5.7073,0,0,0,0,0,0,0,0,0,0,-5.6924,-5.6906,-5.68,-5.6803,-5.6837,-5.6986,-5.6987,-5.7067,-5.708,-5.7132,0,-5.7184,0,-5.7193,-5.721,-5.7211,0,0,0,-5.6826,-5.6895,-5.6925,-5.6803,-5.6839,-5.6986,-5.6916,-5.7074,-5.709,-5.715,-5.7187,-5.7194,-5.7197,-5.7212,-5.7213,-5.7549,-5.7551,0,0,-5.6818,-5.6832,-5.6915,-5.6936,-5.6917,-5.6911,-5.692,-5.7083,-5.7123,-5.7187,-5.7198,-5.72,-5.7213,-5.7215,-5.7547,-5.755,0,0,0,-5.68,-5.6826,-5.6852,-5.6928,-5.6954,-5.6916,-5.6927,-5.7116,-5.7123,-5.72,-5.7203,-5.7215,-5.7217,-5.7545,-5.7548,-5.7663,0,0,0,-5.6795,-5.6816,-5.6849,-5.6859,-5.6952,-5.7038,-5.6956,-5.7112,-5.713,-5.7201,-5.7215,-5.7219,-5.7543,-5.7547,-5.7655,-5.7715,0,0,0,-5.6785,-5.6815,-5.6841,-5.6859,-5.6925,-5.7035,-5.7051,-5.7115,-5.7132,-5.7211,-5.722,-5.7541,-5.7546,-5.7648,-5.7703,-5.7808,0,0,0,-5.6778,-5.694,-5.6843,-5.7024,-5.6924,-5.7106,-5.705,-5.7183,-5.7265,-5.7216,-5.7543,-5.7548,-5.7646,-5.7696,-5.78,-5.7899,-5.7941,0,0,-5.699,-5.6966,-5.7071,-5.6989,-5.7192,-5.7081,-5.7299,-5.736,-5.7352,-5.7483,-5.7491,-5.7658,-5.7702,-5.7806,-5.8174,-5.8208,0,0,0,-5.7143,-5.7219,-5.7269,-5.735,-5.7401,-5.745,-5.7476,-5.7497,-5.7608,-5.7424,-5.7723,-5.7749,-5.7809,-5.7856,-5.7885,-5.7935,-5.757,-5.7569,-5.7569,-5.7462,-5.7447,-5.762,-5.7623,-5.7701,-5.7726,-5.7787,-5.782,-5.778,-5.7851,-5.789,-5.8115,-5.817,-5.8192,-5.8245,-5.794,-5.7941,-5.7941,-5.7942,-5.7771,-5.7876,-5.7821,-5.7969,-5.795,-5.8073,-5.8102,-5.807,-5.818,-5.8085,-5.8137,-5.8035,-5.823,-5.8275,-5.795,-5.7949,-5.7947,-5.7947,-5.7946,-5.7979,-5.8027,-5.8053,-5.8167,-5.8256,-5.8251,-5.836,-5.8338,-5.8318,-5.837,-5.8408,-5.8406,-5.8401,-5.839,-5.839,-5.8391,-5.8392,-5.8392,-5.8393,-5.8185,-5.8211,-5.8307,-5.8375,-5.8424,-5.8484,-5.851,-5.8556,-5.8601,-5.8576,-5.8576,-5.8529,-5.8252,-5.8183,-5.8405,-5.8403,-5.8401,-5.84,-5.8399,-5.8505,-5.8429,-5.8578,-5.8627,-5.8705,-5.8794,-5.8765,-5.886,-5.8894,-5.8948,-5.8889,-5.8689,-5.8662,-5.8638,-5.8581,-5.8893,-5.8893,-5.8893,-5.8893,-5.8681,-5.8666,-5.8813,-5.8892,-5.8966,-5.8955,-5.9121,-5.9142,-5.9151,-5.9171,-5.9122,-5.9044,-5.9021,-5.9008,-5.8977,-5.8923,-5.9315,-5.9315,-5.9315,-5.8877,-5.8868,-5.9015,-5.9026,-5.9084,-5.9134,-5.9289,-5.938,-5.9374,-5.9332,-5.9185,-5.9168,-5.9041,-5.9001,-5.8957,-5.8909,-5.881,0,0]}]]